Home   Weather   Hilo   Past weeks

Flag for USA Past Weather in Hilo, Hawaii, USA — Yesterday and Last 2 Weeks

Now
66 °F

Clear.


Feels Like: 66 °F
Forecast: 66 / 81 °F
Wind: 7 mph from Southwest

Location: Hilo International Airport

Current Time: Apr 25, 2017 at 2:34:32 am

Latest Report: Apr 25, 2017 at 1:53 am


Visibility: 10 mi

Pressure: 30.08 "Hg

Humidity: 63%

Dew Point: 53 °F

Location of HiloLocation

Past Weather in Hilo — Graph

°F

Hilo Temperature Yesterday

Maximum temperature yesterday: 82 °F (at 10:53 am)
Minimum temperature yesterday: 65 °F (at 4:53 am)
Average temperature yesterday: 74 °F

High & Low Weather Summary for the Past Weeks

 TemperatureHumidityPressure
High84 °F (Apr 20, 2:53 pm)100% (Apr 12, 4:53 am)30.15 "Hg (Apr 12, 4:53 am)
Low64 °F (Apr 20, 3:53 am)49% (Apr 20, 2:53 pm)29.94 "Hg (Apr 20, 2:53 am)
Average73 °F80%30.04 "Hg
* Reported Apr 10 12:53 am — Apr 25 12:53 am, Hilo, Weather by CustomWeather, © 2017

Note: Actual official high and low records may vary slightly from our data, if they occured in-between our weather recording intervals... More about our weather records

Advertising

Hilo Weather History for the Previous 24 Hours

Scroll right to see more
 ConditionsComfort  
Time TempWeatherWind HumidityBarometerVisibility
12:53 am
Tue, Apr 25
66 °FClear.7 mph63%30.09 "Hg10 mi
11:53 pm
Mon, Apr 24
67 °FClear.8 mph66%30.10 "Hg10 mi
10:53 pm68 °FClear.8 mph73%30.11 "Hg10 mi
10:14 pm70 °FPassing clouds.6 mph83%30.11 "Hg10 mi
10:01 pm72 °FPassing clouds.6 mph78%30.12 "Hg10 mi
8:53 pm73 °FPassing clouds.5 mph81%30.10 "Hg10 mi
8:06 pm73 °FPassing clouds.No wind83%30.09 "Hg10 mi
7:53 pm74 °FPassing clouds.No wind82%30.08 "Hg10 mi
6:53 pm76 °FClear.No wind74%30.07 "Hg10 mi
5:53 pm77 °FSunny.3 mph69%30.05 "Hg10 mi
4:53 pm78 °FBroken clouds.6 mph66%30.04 "Hg10 mi
3:53 pm78 °FPartly sunny.8 mph64%30.03 "Hg10 mi
2:53 pm80 °FPartly sunny.13 mph60%30.04 "Hg10 mi
1:53 pm81 °FOvercast.12 mph60%30.05 "Hg10 mi
12:53 pm82 °FBroken clouds.12 mph60%30.08 "Hg10 mi
11:53 am82 °FBroken clouds.9 mph53%30.10 "Hg10 mi
10:53 am82 °FBroken clouds.10 mph53%30.12 "Hg10 mi
9:53 am80 °FPartly sunny.5 mph58%30.13 "Hg10 mi
8:53 am78 °FPartly sunny.7 mph64%30.13 "Hg10 mi
7:53 am74 °FBroken clouds.5 mph62%30.12 "Hg10 mi
6:53 am68 °FBroken clouds.9 mph63%30.09 "Hg10 mi
5:53 am66 °FPassing clouds.9 mph68%30.07 "Hg10 mi
4:53 am65 °FPassing clouds.7 mph70%30.05 "Hg10 mi
3:53 am66 °FClear.8 mph73%30.03 "Hg10 mi
2:53 am67 °FClear.7 mph76%30.04 "Hg10 mi
Weather by CustomWeather, © 2017

See weather overviewHow to use our weather pages